|
|
Asteroid (1761) Edmondson
(Preview)
Asteroid (1761) Edmondson will transit Jupiter on the 12th June 2012. 2012-06-12 05:37:54 UT Magnitude: 22.7 Distance: 3.7446 AU Solar distance: 2.8247 AU Position (J2000): R.A. 03 52 22.693 | Dec. +19°24'37.07"
|
Blobrana
|
0
|
|
|
|
|
Asteroid 2012 LD1
(Preview)
Orbital elements:
2012 LD1 Earth MOID = 0.0833 AU
Epoch 2012 Mar. 14.0 TT = JDT 2456000.5 MPC
M 349.53903 (2000.0) P Q
n 0.76202952 Peri. 302.77102 -0.96100754 +0.13848378
a 1.1871024 Node 246.18817 -0.06622588 -0.95563387
e 0.1172108 Incl. 15.16599 -0.26847466 -0.25997337
P 1.29 H 21.8...
|
Blobrana
|
0
|
|
|
|
|
Asteroid 2012 HH2
(Preview)
Orbital elements:
2012 HH2
Epoch 2012 Mar. 14.0 TT = JDT 2456000.5 MPC
M 32.60128 (2000.0) P Q
n 0.00419481 Peri. 72.89337 -0.55383826 -0.73176766
a 38.0768691 Node 57.55556 +0.46387711 -0.66734851
e 0.3134105 Incl. 28.07859 +0.69143416 -0.13842710
P 235 H 6.2 G 0.15 U 2 MPEC 2012 - J31
|
Blobrana
|
1
|
|
|
|
|
Asteroid 2012 LU
(Preview)
Orbital elements:
2012 LU Earth MOID = 0.0107 AU
Epoch 2012 Mar. 14.0 TT = JDT 2456000.5 MPC
M 299.58440 (2000.0) P Q
n 0.51781066 Peri. 200.69845 +0.33114452 +0.94197386
a 1.5358733 Node 88.67235 -0.85779441 +0.32482402
e 0.3374256 Incl. 3.15556 -0.39310567 +0.08470306
P 1.90 H 24.8 G 0....
|
Blobrana
|
0
|
|
|
|
|
Asteroid 2012 LT
(Preview)
Orbital elements:
2012 LT Earth MOID = 0.0132 AU
Epoch 2012 Mar. 14.0 TT = JDT 2456000.5 MPC
M 333.49226 (2000.0) P Q
n 0.27995669 Peri. 189.24795 -0.05377852 +0.99413962
a 2.3142423 Node 77.71087 -0.90990966 -0.01010471
e 0.5568465 Incl. 5.50756 -0.41130558 -0.10763042
P 3.52 H 26.0 G 0....
|
Blobrana
|
0
|
|
|
|
|
Asteroid 2012 LJ
(Preview)
Orbital elements:
2012 LJ Earth MOID = 0.0035 AU
Epoch 2012 Mar. 14.0 TT = JDT 2456000.5 MPC
M 322.69660 (2000.0) P Q
n 0.27839136 Peri. 92.47946 +0.90930087 +0.41595593
a 2.3229091 Node 242.94124 -0.38710101 +0.83458273
e 0.6967589 Incl. 0.79478 -0.15272437 +0.36118185
P 3.54 H 25.5 G 0....
|
Blobrana
|
0
|
|
|
|
|
Asteroid 2012 GX11
(Preview)
Orbital elements:
2012 GX11 Earth MOID = 0.1547 AU
Epoch 2012 Mar. 14.0 TT = JDT 2456000.5 MPC
M 331.66839 (2000.0) P Q
n 0.31197076 Peri. 187.96199 -0.12579624 +0.97923689
a 2.1530798 Node 74.91666 -0.90088179 -0.04565647
e 0.4571045 Incl. 9.47625 -0.41543628 -0.19751100
P 3.16 H 21.0 G...
|
Blobrana
|
1
|
|
|
|
|
Asteroid 2007 LE
(Preview)
The 390 - 870 metre wide asteroid 2007 LE will make a close pass (18.6 lunar distances, 0.0478 AU), travelling at 19.77 km/second, to the Earth-Moon system on the 2nd June, 2012 @ 07:25 UT ±00:01. See more The Lunar Distance (LD), the distance between Earth and the Moon, equals 384,401 km, (or 0.00256...
|
Blobrana
|
0
|
|
|
|
|
Asteroid 2012 KL18
(Preview)
Orbital elements:
2012 KL18 Earth MOID = 0.3930 AU
Epoch 2012 Mar. 14.0 TT = JDT 2456000.5 MPC
M 353.55315 (2000.0) P Q
n 0.29549797 Peri. 284.44528 -0.77532058 +0.54716578
a 2.2323711 Node 289.66135 -0.36817552 -0.79735478
e 0.4436772 Incl. 19.56917 -0.51315182 -0.25462713
P 3.34 H 18....
|
Blobrana
|
0
|
|
|
|
|
Asteroid 2001 LB
(Preview)
The 200 - 450 metre wide asteroid 2001 LB will make a close pass (28.4 lunar distances, 0.0729 AU), travelling at 11.56 km/second, to the Earth-Moon system on the 7th June, 2012 @ 17:00 UT ±00:01. See more The Lunar Distance...
|
Blobrana
|
0
|
|
|
|
|
Asteroid 2006 SG7
(Preview)
The 71 - 160 metre wide asteroid 2006 SG7 will make a close pass (33.4 lunar distances, 0.0857 AU), travelling at 16.47 km/second, to the Earth-Moon system on the 6th June, 2012 @ 11:15 UT ±18:32. See more The Lunar Distanc...
|
Blobrana
|
0
|
|
|
|
|
Asteroid 2012 JW11
(Preview)
Orbital elements:
2012 JW11 Earth MOID = 0.1304 AU
Epoch 2012 Mar. 14.0 TT = JDT 2456000.5 MPC
M 337.53184 (2000.0) P Q
n 0.27392885 Peri. 224.64917 -0.26804967 +0.96311635
a 2.3480691 Node 29.82597 -0.87012173 -0.23151344
e 0.5144257 Incl. 2.71803 -0.41356685 -0.13714383
P 3.60 H 21.8 G...
|
Blobrana
|
1
|
|
|
|
|
Asteroid 2012 KE25
(Preview)
Orbital elements:
2012 KE25 Earth MOID = 0.1808 AU
Epoch 2012 Mar. 14.0 TT = JDT 2456000.5 MPC
M 0.23519 (2000.0) P Q
n 0.44317018 Peri. 176.78014 -0.05847551 -0.97829379
a 1.7038147 Node 276.50740 +0.91138362 +0.02895027
e 0.7682515 Incl. 11.54224 +0.40738252 -0.20519051
P 2.22 H 18.7 G...
|
Blobrana
|
0
|
|
|
|
|
Asteroid 2012 KU42
(Preview)
Orbital elements:
2012 KU42 Earth MOID = 0.0824 AU
Epoch 2012 Mar. 14.0 TT = JDT 2456000.5 MPC
M 312.11769 (2000.0) P Q
n 0.33506359 Peri. 209.80282 +0.94915799 +0.21947268
a 2.0529792 Node 135.60566 -0.18478100 +0.96882432
e 0.4851172 Incl. 18.81937 -0.25486290 +0.11493991
P 2.94 H 17....
|
Blobrana
|
0
|
|
|
|
|
Asteroid 2012 KA42
(Preview)
Orbital elements:
2012 KA42 Earth MOID = 0.0143 AU
Epoch 2012 Mar. 14.0 TT = JDT 2456000.5 MPC
M 337.85822 (2000.0) P Q
n 0.66528351 Peri. 314.86591 -0.93016711 +0.35410638
a 1.2995656 Node 246.09571 -0.29981279 -0.88504022
e 0.2493826 Incl. 6.08697 -0.21189961 -0.30217956
P 1.48 H 27.3...
|
Blobrana
|
0
|
|
|